Epoch,demod_status_bits,ebno,lock_status,signal_level,viterbi_ber
1665560494,,,0xc0504d,-37.7,
1665560495,C;S;V;F,13.5,0x00c000,-38.4,0.00e-0
1665560496,C;S;V;F,13.8,0x00c000,,0.00e-0
1665560497,C;S;V;F,13.7,0x00c000,-37.9,0.00e-0
1665560498,C;S;V;F,13.9,0x00c000,-37.5,0.00e-0
1665560499,C;S;V;F,14.1,0x00c000,-37.5,0.00e-0
1665560500,C;S;V;F,13.8,0x00c000,-37.9,0.00e-0
1665560501,C;S;V;F,14.0,0x00c000,-37.6,0.00e-0
1665560502,C;S;V;F,14.2,0x00c000,-37.8,0.00e-0
1665560503,C;S;V;F,13.9,0x00c000,-37.8,
1665560504,,14.0,0x00c000,-37.6,0.00e-0
1665560505,C;S;V;F,14.2,0x00c000,-37.5,0.00e-0
1665560506,C;S;V;F,14.4,0x00c000,-37.4,0.00e-0
1665560507,C;S;V;F,,0x00c000,-37.3,0.00e-0
1665560508,C;S;V;F,14.1,0x00c000,,0.00e-0
1665560509,C;S;V;F,14.4,0x00c000,-37.3,0.00e-0
1665560510,C;S;V;F,14.0,0x00c000,-37.6,0.00e-0
1665560512,C;S;V;F,14.7,0x00c000,-37.1,0.00e-0
1665560513,C;S;V;F,14.5,0x00c000,-37.6,
1665560514,,14.4,0x00c000,-37.1,0.00e-0
1665560515,C;S;V;F,14.7,0x00c000,-37.2,0.00e-0
1665560516,C;S;V;F,14.4,0x00c000,-37.4,0.00e-0
1665560517,C;S;V;F,,0x00c000,-37.1,0.00e-0
1665560518,C;S;V;F,14.6,0x00c000,-37.1,0.00e-0
1665560519,C;S;V;F,15.1,0x00c000,,0.00e-0
1665560520,C;S;V;F,14.6,0x00c000,-36.8,0.00e-0
1665560521,C;S;V;F,14.7,0x00c000,-37.1,0.00e-0
1665560522,C;S;V;F,14.7,0x00c000,-37.1,0.00e-0
1665560523,C;S;V;F,15.0,0x00c000,-36.6,0.00e-0
1665560524,C;S;V;F,15.1,0x00c000,-36.5,0.00e-0
1665560525,C;S;V;F,15.0,0x00c000,-37.0,0.00e-0
1665560526,C;S;V;F,14.9,0x00c000,-36.5,0.00e-0
1665560527,C;S;V;F,15.0,0x00c000,-37.0,
1665560528,,14.9,0x00c000,-36.6,0.00e-0
1665560529,C;S;V;F,15.3,0x00c000,-36.7,0.00e-0
1665560530,C;S;V;F,15.2,0x00c000,-36.4,0.00e-0
1665560531,C;S;V;F,,0x00c000,-36.3,0.00e-0
1665560532,C;S;V;F,15.5,0x00c000,,0.00e-0
1665560533,C;S;V;F,15.0,0x00c000,-36.5,0.00e-0
1665560534,C;S;V;F,15.2,0x00c000,-36.3,0.00e-0
1665560535,C;S;V;F,15.4,0x00c000,-36.5,0.00e-0
1665560536,C;S;V;F,15.6,0x00c000,-36.3,0.00e-0
1665560537,C;S;V;F,15.6,0x00c000,-36.3,0.00e-0
1665560538,C;S;V;F,15.5,0x00c000,-36.3,
1665560539,,15.7,0x00c000,-36.2,0.00e-0
1665560540,C;S;V;F,15.9,0x00c000,-36.1,0.00e-0
1665560541,C;S;V;F,15.4,0x00c000,-36.4,0.00e-0
1665560542,C;S;V;F,15.7,0x00c000,-36.0,0.00e-0
1665560543,C;S;V;F,,0x00c000,-36.0,0.00e-0
1665560544,C;S;V;F,15.8,0x00c000,-36.3,0.00e-0
1665560545,C;S;V;F,15.4,0x00c000,,0.00e-0
1665560546,C;S;V;F,15.8,0x00c000,-35.9,0.00e-0
1665560547,C;S;V;F,15.8,0x00c000,-36.0,0.00e-0
1665560548,C;S;V;F,16.1,0x00c000,-36.0,0.00e-0
1665560549,C;S;V;F,16.0,0x00c000,-36.0,0.00e-0
1665560550,C;S;V;F,16.2,0x00c000,-35.8,0.00e-0
1665560551,C;S;V;F,16.0,0x00c000,-36.1,0.00e-0
1665560552,C;S;V;F,15.7,0x00c000,-36.2,
1665560553,,16.2,0x00c000,-35.5,0.00e-0
1665560554,C;S;V;F,16.2,0x00c000,-35.6,0.00e-0
1665560555,C;S;V;F,,0x00c000,-35.6,0.00e-0
1665560556,C;S;V;F,16.3,0x00c000,,0.00e-0
1665560557,C;S;V;F,16.2,0x00c000,-35.5,0.00e-0
1665560558,C;S;V;F,16.2,0x00c000,-35.6,0.00e-0
1665560559,C;S;V;F,16.4,0x00c000,-35.5,0.00e-0
1665560560,C;S;V;F,16.1,0x00c000,-35.6,0.00e-0
1665560561,C;S;V;F,16.5,0x00c000,-35.5,0.00e-0
1665560562,C;S;V;F,15.9,0x00c000,-35.6,
1665560563,,16.2,0x00c000,-35.3,0.00e-0
1665560564,C;S;V;F,16.7,0x00c000,-35.6,0.00e-0
1665560565,C;S;V;F,,0x00c000,-35.4,0.00e-0
1665560566,C;S;V;F,16.2,0x00c000,-35.2,0.00e-0
1665560567,C;S;V;F,16.3,0x00c000,,0.00e-0
1665560568,C;S;V;F,16.5,0x00c000,-35.3,0.00e-0
1665560569,C;S;V;F,16.4,0x00c000,-35.3,0.00e-0
1665560570,C;S;V;F,16.4,0x00c000,-35.2,0.00e-0
1665560571,C;S;V;F,16.3,0x00c000,-35.5,0.00e-0
1665560572,C;S;V;F,16.6,0x00c000,-35.2,0.00e-0
1665560573,C;S;V;F,16.5,0x00c000,-35.1,0.00e-0
1665560576,C;S;V;F,16.4,0x00c000,-35.1,0.00e-0
1665560577,C;S;V;F,16.3,0x00c000,-35.1,0.00e-0
1665560578,C;S;V;F,16.3,0x00c000,-35.2,0.00e-0
1665560579,C;S;V;F,16.2,0x00c000,-35.3,0.00e-0
1665560580,C;S;V;F,16.6,0x00c000,-35.2,0.00e-0
1665560581,C;S;V;F,16.5,0x00c000,-35.2,0.00e-0
1665560582,,16.5,0x00c000,-35.2,
1665560583,C;S;V;F,16.5,0x00c000,-35.4,0.00e-0
1665560584,C;S;V;F,16.3,0x00c000,-35.2,0.00e-0
1665560585,C;S;V;F,,0x00c000,-35.5,0.00e-0
1665560586,C;S;V;F,16.5,0x00c000,,0.00e-0
1665560587,C;S;V;F,16.2,0x00c000,-35.2,0.00e-0
1665560588,C;S;V;F,16.6,0x00c000,-35.0,0.00e-0
1665560589,C;S;V;F,16.6,0x00c000,-35.0,0.00e-0
1665560590,C;S;V;F,16.5,0x00c000,-35.5,0.00e-0
1665560591,C;S;V;F,16.4,0x00c000,-35.4,0.00e-0
1665560592,C;S;V;F,16.8,0x00c000,-35.3,0.00e-0
1665560593,C;S;V;F,16.5,0x00c000,-35.4,
1665560594,,16.7,0x00c000,-35.4,0.00e-0
1665560595,C;S;V;F,16.5,0x00c000,-35.3,0.00e-0
1665560596,C;S;V;F,16.2,0x00c000,-35.6,0.00e-0
1665560597,C;S;V;F,,0x00c000,-35.6,0.00e-0
1665560598,C;S;V;F,16.3,0x00c000,,0.00e-0
1665560599,C;S;V;F,16.4,0x00c000,-35.5,0.00e-0
1665560600,C;S;V;F,16.7,0x00c000,-35.6,0.00e-0
1665560601,C;S;V;F,16.4,0x00c000,-35.6,0.00e-0
1665560602,C;S;V;F,16.4,0x00c000,-35.6,0.00e-0
1665560603,C;S;V;F,16.2,0x00c000,-35.6,0.00e-0
1665560604,C;S;V;F,16.4,0x00c000,-35.6,0.00e-0
1665560605,C;S;V;F,16.3,0x00c000,-35.6,0.00e-0
1665560606,C;S;V;F,16.4,0x00c000,-35.9,0.00e-0
1665560607,,16.4,0x00c000,-36.0,
1665560608,C;S;V;F,16.1,0x00c000,-35.9,0.00e-0
1665560609,C;S;V;F,16.1,0x00c000,-35.9,0.00e-0
1665560610,C;S;V;F,,0x00c000,-35.8,0.00e-0
1665560611,C;S;V;F,16.1,0x00c000,,0.00e-0
1665560612,C;S;V;F,16.1,0x00c000,-35.9,0.00e-0
1665560613,C;S;V;F,16.1,0x00c000,-35.9,0.00e-0
1665560614,C;S;V;F,16.1,0x00c000,-36.1,0.00e-0
1665560615,C;S;V;F,16.3,0x00c000,-35.9,0.00e-0
1665560616,C;S;V;F,16.2,0x00c000,-36.1,0.00e-0
1665560617,,16.2,0x00c000,-36.1,
1665560618,C;S;V;F,15.9,0x00c000,-36.4,0.00e-0
1665560619,C;S;V;F,15.9,0x00c000,-36.2,0.00e-0
1665560620,C;S;V;F,,0x00c000,-36.4,0.00e-0
1665560621,C;S;V;F,15.8,0x00c000,,0.00e-0
1665560622,C;S;V;F,15.6,0x00c000,-36.7,0.00e-0
1665560623,C;S;V;F,15.8,0x00c000,-36.7,0.00e-0
1665560624,C;S;V;F,15.9,0x00c000,-36.4,0.00e-0
1665560625,C;S;V;F,15.9,0x00c000,-36.4,0.00e-0
1665560626,C;S;V;F,15.9,0x00c000,-36.4,0.00e-0
1665560627,C;S;V;F,15.9,0x00c000,-36.4,
1665560628,C;S;V;F,15.8,0x00c000,-36.4,0.00e-0
1665560629,,15.6,0x00c000,-36.7,0.00e-0
1665560630,C;S;V;F,15.4,0x00c000,-36.8,0.00e-0
1665560631,C;S;V;F,15.6,0x00c000,-36.6,0.00e-0
1665560632,C;S;V;F,,0x00c000,-36.6,0.00e-0
1665560633,C;S;V;F,15.6,0x00c000,-36.7,0.00e-0
1665560634,C;S;V;F,15.6,0x00c000,,0.00e-0
1665560635,C;S;V;F,15.4,0x00c000,-36.6,0.00e-0
1665560636,C;S;V;F,15.8,0x00c000,-36.8,0.00e-0
1665560638,,15.6,0x00c000,-36.8,
1665560639,C;S;V;F,15.4,0x00c000,-37.0,0.00e-0
1665560640,C;S;V;F,15.4,0x00c000,-37.0,0.00e-0
1665560641,C;S;V;F,,0x00c000,-37.0,0.00e-0
1665560642,C;S;V;F,15.5,0x00c000,,0.00e-0
1665560643,C;S;V;F,15.5,0x00c000,-36.8,0.00e-0
1665560644,C;S;V;F,15.5,0x00c000,-37.0,0.00e-0
1665560645,C;S;V;F,15.6,0x00c000,-36.7,0.00e-0
1665560646,C;S;V;F,15.3,0x00c000,-36.9,0.00e-0
1665560647,C;S;V;F,15.8,0x00c000,-36.7,0.00e-0
1665560648,,15.7,0x00c000,-36.9,
1665560649,C;S;V;F,15.8,0x00c000,-36.9,0.00e-0
1665560650,C;S;V;F,,0x00c000,-36.7,0.00e-0
1665560651,C;S;V;F,15.7,0x00c000,,0.00e-0
1665560652,C;S;V;F,15.6,0x00c000,-36.8,0.00e-0
1665560653,C;S;V;F,15.8,0x00c000,-36.9,0.00e-0
1665560654,C;S;V;F,15.5,0x00c000,-36.7,0.00e-0
1665560655,C;S;V;F,15.7,0x00c000,-36.7,0.00e-0
1665560656,C;S;V;F,15.6,0x00c000,-36.5,0.00e-0
1665560657,C;S;V;F,15.8,0x00c000,-36.4,0.00e-0
1665560658,C;S;V;F,16.1,0x00c000,-36.6,0.00e-0
1665560659,C;S;V;F,16.0,0x00c000,-36.4,0.00e-0
1665560660,C;S;V;F,16.0,0x00c000,-36.4,
1665560661,,16.5,0x00c000,-36.1,0.00e-0
1665560662,C;S;V;F,16.1,0x00c000,-36.3,0.00e-0
1665560663,C;S;V;F,,0x00c000,-36.0,0.00e-0
1665560664,C;S;V;F,16.2,0x00c000,-36.1,0.00e-0
1665560665,C;S;V;F,16.5,0x00c000,,0.00e-0
1665560666,C;S;V;F,16.4,0x00c000,-35.9,0.00e-0
1665560667,C;S;V;F,16.6,0x00c000,-35.9,0.00e-0
1665560668,C;S;V;F,16.4,0x00c000,-35.9,0.00e-0
1665560669,C;S;V;F,16.1,0x00c000,-36.1,0.00e-0
1665560670,C;S;V;F,16.3,0x00c000,-36.1,
1665560671,,16.4,0x00c000,-36.2,0.00e-0
1665560672,C;S;V;F,16.3,0x00c000,-36.0,0.00e-0
1665560673,C;S;V;F,,0x00c000,-36.1,0.00e-0
1665560674,C;S;V;F,16.5,0x00c000,-35.9,0.00e-0
1665560675,C;S;V;F,16.2,0x00c000,,0.00e-0
1665560676,C;S;V;F,16.5,0x00c000,-36.0,0.00e-0
1665560677,C;S;V;F,16.1,0x00c000,-36.0,0.00e-0
1665560678,C;S;V;F,16.2,0x00c000,-36.3,0.00e-0
1665560679,C;S;V;F,16.0,0x00c000,-36.3,0.00e-0
1665560680,C;S;V;F,16.1,0x00c000,-36.2,0.00e-0
1665560681,C;S;V;F,15.9,0x00c000,-36.5,0.00e-0
1665560682,C;S;V;F,15.7,0x00c000,-36.5,0.00e-0
1665560683,C;S;V;F,15.7,0x00c000,-36.7,0.00e-0
1665560684,C;S;V;F,15.8,0x00c000,-36.6,
1665560685,C;S;V;F,15.6,0x00c000,-36.8,0.00e-0
1665560686,,15.4,0x00c000,-36.9,0.00e-0
1665560687,C;S;V;F,15.5,0x00c000,-37.0,0.00e-0
1665560688,C;S;V;F,,0x00c000,-37.3,0.00e-0
1665560689,C;S;V;F,15.3,0x00c000,-37.2,0.00e-0
1665560690,C;S;V;F,15.4,0x00c000,,0.00e-0
1665560691,C;S;V;F,15.4,0x00c000,-37.3,0.00e-0
1665560692,C;S;V;F,15.0,0x00c000,-37.5,0.00e-0
1665560693,C;S;V;F,15.2,0x00c000,-37.3,0.00e-0
1665560694,C;S;V;F,14.9,0x00c000,-37.7,0.00e-0
1665560695,C;S;V;F,15.3,0x00c000,-37.2,
1665560696,,15.2,0x00c000,-37.2,0.00e-0
1665560697,C;S;V;F,15.4,0x00c000,-37.3,0.00e-0
1665560698,C;S;V;F,,0x00c000,-37.2,0.00e-0
1665560699,C;S;V;F,15.4,0x00c000,,0.00e-0
1665560701,C;S;V;F,15.1,0x00c000,-37.4,
1665560702,,14.9,0x00c000,-37.7,0.00e-0
1665560703,C;S;V;F,14.9,0x00c000,-37.5,0.00e-0
1665560704,C;S;V;F,15.0,0x00c000,-37.8,0.00e-0
1665560705,C;S;V;F,,0x00c000,-37.6,0.00e-0
1665560706,C;S;V;F,14.9,0x00c000,-38.0,0.00e-0
1665560707,C;S;V;F,14.6,0x00c000,,0.00e-0
1665560708,C;S;V;F,14.6,0x00c000,-37.7,0.00e-0
1665560709,C;S;V;F,14.9,0x00c000,-38.0,0.00e-0
1665560710,C;S;V;F,14.5,0x00c000,-38.1,0.00e-0
1665560711,C;S;V;F,14.6,0x00c000,-38.0,0.00e-0
1665560712,C;S;V;F,14.8,0x00c000,-38.0,0.00e-0
1665560713,C;S;V;F,15.2,0x00c000,-37.3,0.00e-0
1665560714,C;S;V;F,15.2,0x00c000,-37.5,0.00e-0
1665560715,C;S;V;F,15.1,0x00c000,-37.6,
1665560716,,15.5,0x00c000,-37.3,0.00e-0
1665560717,C;S;V;F,15.8,0x00c000,-37.1,0.00e-0
1665560718,C;S;V;F,15.6,0x00c000,-36.9,0.00e-0
1665560719,C;S;V;F,15.6,0x00c000,-36.8,0.00e-0
1665560720,C;S;V;F,,0x00c000,-36.8,0.00e-0
1665560721,C;S;V;F,15.8,0x00c000,,0.00e-0
1665560722,C;S;V;F,16.0,0x00c000,-36.6,0.00e-0
1665560723,C;S;V;F,16.0,0x00c000,-36.6,0.00e-0
1665560724,C;S;V;F,16.1,0x00c000,-36.4,0.00e-0
1665560725,C;S;V;F,15.9,0x00c000,-36.4,0.00e-0
1665560726,C;S;V;F,16.1,0x00c000,-36.4,0.00e-0
1665560727,C;S;V;F,16.1,0x00c000,-36.4,0.00e-0
1665560728,C;S;V;F,16.3,0x00c000,-36.3,
1665560729,,16.2,0x00c000,-36.2,0.00e-0
1665560730,C;S;V;F,16.4,0x00c000,-36.0,0.00e-0
1665560731,C;S;V;F,16.5,0x00c000,-35.9,0.00e-0
1665560732,C;S;V;F,,0x00c000,-35.9,0.00e-0
1665560733,C;S;V;F,16.5,0x00c000,-35.8,0.00e-0
1665560734,C;S;V;F,16.5,0x00c000,,0.00e-0
1665560735,C;S;V;F,16.4,0x00c000,-35.9,0.00e-0
1665560736,C;S;V;F,16.4,0x00c000,-36.0,0.00e-0
1665560737,C;S;V;F,16.5,0x00c000,-36.1,0.00e-0
1665560738,C;S;V;F,16.3,0x00c000,-36.2,0.00e-0
1665560739,C;S;V;F,16.1,0x00c000,-36.1,0.00e-0
1665560740,C;S;V;F,16.3,0x00c000,-36.4,0.00e-0
1665560741,C;S;V;F,16.3,0x00c000,-36.1,
1665560742,,16.4,0x00c000,-36.4,0.00e-0
1665560743,C;S;V;F,16.3,0x00c000,-36.2,0.00e-0
1665560744,C;S;V;F,16.2,0x00c000,-36.3,0.00e-0
1665560745,C;S;V;F,,0x00c000,-36.4,0.00e-0
1665560746,C;S;V;F,16.4,0x00c000,,0.00e-0
1665560747,C;S;V;F,16.0,0x00c000,-36.4,0.00e-0
1665560748,C;S;V;F,15.9,0x00c000,-36.7,0.00e-0
1665560749,C;S;V;F,15.8,0x00c000,-36.8,0.00e-0
1665560750,C;S;V;F,15.8,0x00c000,-36.8,
1665560751,,15.9,0x00c000,-36.7,0.00e-0
1665560752,C;S;V;F,15.9,0x00c000,-36.6,0.00e-0
1665560753,C;S;V;F,16.0,0x00c000,-36.4,0.00e-0
1665560754,C;S;V;F,,0x00c000,-36.4,0.00e-0
1665560755,C;S;V;F,16.2,0x00c000,-36.3,0.00e-0
1665560756,C;S;V;F,16.3,0x00c000,,0.00e-0
1665560757,C;S;V;F,16.1,0x00c000,-36.4,0.00e-0
1665560758,C;S;V;F,15.7,0x00c000,-36.7,0.00e-0
1665560759,C;S;V;F,15.7,0x00c000,-36.9,0.00e-0
1665560760,C;S;V;F,15.0,0x00c000,-37.3,0.00e-0
1665560761,C;S;V;F,14.9,0x00c000,-37.8,0.00e-0
1665560764,C;S;V;F,15.3,0x00c000,-37.5,0.00e-0
1665560765,C;S;V;F,15.2,0x00c000,-37.4,0.00e-0
1665560766,C;S;V;F,15.4,0x00c000,-37.6,0.00e-0
1665560767,C;S;V;F,15.2,0x00c000,-37.4,0.00e-0
1665560768,,15.2,0x00c000,-37.4,
1665560769,C;S;V;F,15.4,0x00c000,-37.4,0.00e-0
1665560770,C;S;V;F,15.1,0x00c000,-37.4,0.00e-0
1665560771,C;S;V;F,,0x00c000,-37.9,0.00e-0
1665560772,C;S;V;F,14.9,0x00c000,,0.00e-0
1665560773,C;S;V;F,14.9,0x00c000,-37.8,0.00e-0
1665560774,C;S;V;F,15.1,0x00c000,-37.7,0.00e-0
1665560775,C;S;V;F,15.0,0x00c000,-37.9,0.00e-0
1665560776,C;S;V;F,15.2,0x00c000,-37.2,0.00e-0
1665560777,C;S;V;F,15.8,0x00c000,-36.4,0.00e-0
1665560778,C;S;V;F,16.1,0x00c000,-36.0,0.00e-0
1665560779,C;S;V;F,16.4,0x00c000,-35.9,0.00e-0
1665560780,C;S;V;F,17.0,0x00c000,-35.5,
1665560781,,17.5,0x00c000,-34.7,0.00e-0
1665560782,C;S;V;F,17.9,0x00c000,-34.2,0.00e-0
1665560783,C;S;V;F,,0x00c000,-33.6,0.00e-0
1665560784,C;S;V;F,18.4,0x00c000,-33.1,0.00e-0
1665560785,C;S;V;F,18.6,0x00c000,,0.00e-0
1665560786,C;S;V;F,18.6,0x00c000,-33.1,0.00e-0
1665560787,C;S;V;F,18.7,0x00c000,-32.9,0.00e-0
1665560788,C;S;V;F,18.7,0x00c000,-32.7,0.00e-0
1665560789,C;S;V;F,18.7,0x00c000,-32.5,0.00e-0
1665560790,C;S;V;F,19.0,0x00c000,-32.4,0.00e-0
1665560791,C;S;V;F,18.8,0x00c000,-32.3,0.00e-0
1665560792,C;S;V;F,19.0,0x00c000,-32.0,
1665560793,,19.1,0x00c000,-32.0,0.00e-0
1665560794,C;S;V;F,,,,0.00e-0
1665560797,C;S;V;F,19.0,0x00c000,-32.4,
1665560798,,18.4,0x00c000,-32.8,0.00e-0
1665560799,C;S;V;F,18.2,0x00c000,-33.2,0.00e-0
1665560800,C;S;V;F,18.1,0x00c000,-33.4,0.00e-0
1665560801,C;S;V;F,,0x00c000,-33.8,0.00e-0
1665560802,C;S;V;F,17.9,0x00c000,,0.00e-0
1665560803,C;S;V;F,18.0,0x00c000,-33.7,0.00e-0
1665560804,C;S;V;F,18.3,0x00c000,-33.2,0.00e-0
1665560805,,18.7,0x00c000,-32.6,
1665560806,C;S;V;F,,0x00c000,-32.3,0.00e-0
1665560807,C;S;V;F,18.8,0x00c000,-31.9,0.00e-0
1665560808,C;S;V;F,18.9,0x00c000,,0.00e-0
1665560809,C;S;V;F,19.0,0x00c000,-31.7,0.00e-0
1665560810,C;S;V;F,18.9,0x00c000,-32.0,0.00e-0
1665560811,C;S;V;F,18.9,0x00c000,-32.0,0.00e-0
1665560812,C;S;V;F,19.1,0x00c000,-31.6,0.00e-0
1665560813,C;S;V;F,19.4,0x00c000,-30.9,0.00e-0
1665560814,C;S;V;F,19.5,0x00c000,-30.9,0.00e-0
1665560815,C;S;V;F,19.3,0x00c000,-31.5,
1665560816,,19.3,0x00c000,-31.9,0.00e-0
1665560817,C;S;V;F,19.0,0x00c000,-32.6,0.00e-0
1665560818,C;S;V;F,18.7,0x00c000,-32.8,0.00e-0
1665560819,C;S;V;F,18.7,0x00c000,-32.9,0.00e-0
1665560820,C;S;V;F,,0x00c000,-33.0,0.00e-0
1665560821,C;S;V;F,18.7,0x00c000,,0.00e-0
1665560822,C;S;V;F,18.6,0x00c000,-33.1,0.00e-0
1665560823,C;S;V;F,18.1,0x00c000,-33.7,0.00e-0
1665560824,C;S;V;F,17.7,0x00c000,-34.5,0.00e-0
1665560826,,,0x00c000,-36.3,
1665560827,C;S;V;F,16.5,0x00c000,,0.00e-0
1665560828,C;S;V;F,16.4,0x00c000,-36.4,0.00e-0
1665560829,C;S;V;F,15.8,0x00c000,-36.4,0.00e-0
1665560830,C;S;V;F,15.6,0x00c000,-36.8,0.00e-0
1665560831,C;S;V;F,15.7,0x00c000,-36.5,0.00e-0
1665560832,C;S;V;F,16.2,0x00c000,-36.3,0.00e-0
1665560833,C;S;V;F,16.3,0x00c000,-36.3,0.00e-0
1665560834,,16.2,0x00c000,-36.2,
1665560835,C;S;V;F,16.7,0x00c000,-35.7,0.00e-0
1665560836,C;S;V;F,16.8,0x00c000,-35.9,0.00e-0
1665560837,C;S;V;F,,0x00c000,-36.3,0.00e-0
1665560838,C;S;V;F,16.1,0x00c000,,0.00e-0
1665560839,C;S;V;F,15.7,0x00c000,-37.2,0.00e-0
1665560840,C;S;V;F,14.9,0x00c000,-38.0,0.00e-0
1665560841,C;S;V;F,14.9,0x00c000,-37.7,0.00e-0
1665560842,C;S;V;F,14.9,0x00c000,-37.8,0.00e-0
1665560843,C;S;V;F,14.7,0x00c000,-38.5,0.00e-0
1665560844,C;S;V;F,14.5,0x00c000,-38.0,0.00e-0
1665560845,C;S;V;F,15.6,0x00c000,-36.4,0.00e-0
1665560846,C;S;V;F,16.6,0x00c000,-35.7,
1665560847,,17.0,0x00c000,-35.2,0.00e-0
1665560848,C;S;V;F,16.7,0x00c000,-35.5,0.00e-0
1665560849,C;S;V;F,16.4,0x00c000,-36.1,0.00e-0
1665560850,C;S;V;F,15.9,0x00c000,-36.4,0.00e-0
1665560851,C;S;V;F,,0x00c000,-37.0,0.00e-0
1665560852,C;S;V;F,15.4,0x00c000,,0.00e-0
1665560853,C;S;V;F,14.8,0x00c000,-37.8,0.00e-0
1665560854,C;S;V;F,14.4,0x00c000,-38.0,0.00e-0
1665560855,C;S;V;F,14.6,0x00c000,-37.9,0.00e-0
1665560856,C;S;V;F,14.9,0x00c000,-37.8,0.00e-0
1665560857,C;S;V;F,15.4,0x00c000,-37.4,0.00e-0
1665560858,C;S;V;F,15.7,0x00c000,-36.8,0.00e-0
1665560859,C;S;V;F,15.2,0x00c000,-37.7,0.00e-0
1665560860,C;S;V;F,14.8,0x00c000,-37.9,0.00e-0
1665560861,C;S;V;F,15.5,0x00c000,-37.0,
1665560862,,16.4,0x00c000,-36.1,0.00e-0
1665560863,C;S;V;F,16.3,0x00c000,-37.0,0.00e-0
1665560864,C;S;V;F,14.8,0x00c000,-37.8,0.00e-0
1665560865,C;S;V;F,,0x00c000,-37.7,0.00e-0
1665560866,C;S;V;F,15.2,0x00c000,-36.4,0.00e-0
1665560867,C;S;V;F,15.2,0x00c000,,0.00e-0
1665560868,C;S;V;F,15.8,0x00c000,-36.3,0.00e-0
1665560869,C;S;V;F,15.7,0x00c000,-36.5,0.00e-0
1665560870,C;S;V;F,15.3,0x00c000,-37.2,0.00e-0
1665560871,C;S;V;F,14.1,0x00c000,-38.3,0.00e-0
1665560872,C;S;V;F,13.2,0x00c000,-39.9,0.00e-0
1665560873,C;S;V;F,13.3,0x00c000,-39.3,
1665560874,,14.1,0x00c000,-38.3,1.51e-7
1665560875,C;S;V;F,14.0,0x00c000,-38.8,0.00e-0
1665560876,C;S;V;F,13.6,0x00c000,-38.7,0.00e-0
1665560877,C;S;V;F,,0x00c000,-38.4,0.00e-0
1665560878,C;S;V;F,14.2,0x00c000,-38.7,0.00e-0
1665560879,C;S;V;F,13.8,0x00c000,,0.00e-0
1665560880,C;S;V;F,12.9,0x00c000,-40.1,0.00e-0
1665560881,C;S;V;F,12.0,0x00c000,-40.6,1.51e-6
1665560882,C;S;V;F,12.3,0x00c000,-39.4,2.42e-6
1665560883,C;S;V;F,14.2,0x00c000,-37.7,4.54e-7
1665560884,C;S;V;F,14.7,0x00c000,-38.4,0.00e-0
1665560885,C;S;V;F,13.5,0x00c000,-39.2,0.00e-0
1665560886,,14.7,0x00c000,-38.3,
1665560887,C;S;V;F,,,,0.00e-0
1665560889,,,0x00c000,-38.3,
1665560890,C;S;V;F,14.5,0x00c000,-37.9,0.00e-0
1665560891,C;S;V;F,14.5,0x00c000,,0.00e-0
1665560892,C;S;V;F,16.0,0x00c000,-36.3,0.00e-0
1665560893,C;S;V;F,16.1,0x00c000,-36.3,0.00e-0
1665560894,C;S;V;F,16.3,0x00c000,-36.3,0.00e-0
1665560895,C;S;V;F,16.6,0x00c000,-35.3,0.00e-0
1665560896,C;S;V;F,17.1,0x00c000,-35.2,0.00e-0
1665560897,C;S;V;F,17.1,0x00c000,-35.2,0.00e-0
1665560898,C;S;V;F,16.9,0x00c000,-36.0,0.00e-0
1665560899,,15.3,0x00c000,-37.2,
1665560900,C;S;V;F,15.3,0x00c000,-37.2,0.00e-0
1665560901,C;S;V;F,,0x00c000,-36.8,0.00e-0
1665560902,C;S;V;F,15.6,0x00c000,-37.4,0.00e-0
1665560903,C;S;V;F,15.2,0x00c000,,0.00e-0
1665560904,C;S;V;F,15.1,0x00c000,-37.1,0.00e-0
1665560905,C;S;V;F,15.6,0x00c000,-37.1,0.00e-0
1665560906,C;S;V;F,15.2,0x00c000,-38.1,0.00e-0
1665560907,C;S;V;F,15.1,0x00c000,-36.8,0.00e-0
1665560908,C;S;V;F,16.3,0x00c000,-35.4,0.00e-0
1665560909,C;S;V;F,17.3,0x00c000,-35.1,
1665560910,,17.1,0x00c000,-35.6,0.00e-0
1665560911,C;S;V;F,,0x00c000,-34.7,0.00e-0
1665560912,C;S;V;F,17.7,0x00c000,,0.00e-0
1665560913,C;S;V;F,18.0,0x00c000,-33.7,0.00e-0
1665560914,C;S;V;F,18.2,0x00c000,-32.9,0.00e-0
1665560915,C;S;V;F,18.7,0x00c000,-32.5,0.00e-0
1665560916,C;S;V;F,18.5,0x00c000,-33.2,0.00e-0
1665560917,C;S;V;F,18.5,0x00c000,-33.0,
1665560918,,18.9,0x00c000,-31.6,0.00e-0
1665560919,C;S;V;F,18.9,0x00c000,-31.7,0.00e-0
1665560920,C;S;V;F,18.5,0x00c000,-33.0,0.00e-0
1665560921,C;S;V;F,,0x00c000,-33.2,0.00e-0
1665560922,C;S;V;F,18.4,0x00c000,-34.2,0.00e-0
1665560923,C;S;V;F,18.1,0x00c000,,0.00e-0
1665560924,C;S;V;F,17.5,0x00c000,-34.8,0.00e-0
1665560925,C;S;V;F,17.5,0x00c000,-34.6,0.00e-0
1665560926,C;S;V;F,17.7,0x00c000,-34.1,0.00e-0
1665560927,C;S;V;F,17.1,0x00c000,-35.9,0.00e-0
1665560928,C;S;V;F,16.1,0x00c000,-36.9,0.00e-0
1665560929,C;S;V;F,15.3,0x00c000,-37.3,0.00e-0
1665560930,,16.2,0x00c000,-36.3,
1665560931,C;S;V;F,16.6,0x00c000,-36.4,0.00e-0
1665560932,C;S;V;F,,0x00c000,-35.7,0.00e-0
1665560933,C;S;V;F,16.5,0x00c000,,0.00e-0
1665560934,C;S;V;F,17.1,0x00c000,-35.4,0.00e-0
1665560935,C;S;V;F,17.1,0x00c000,-35.5,0.00e-0
1665560936,C;S;V;F,17.4,0x00c000,-34.9,0.00e-0
1665560937,C;S;V;F,17.6,0x00c000,-34.0,0.00e-0
1665560938,C;S;V;F,18.4,0x00c000,-32.5,0.00e-0
1665560939,C;S;V;F,18.8,0x00c000,-32.6,0.00e-0
1665560940,C;S;V;F,18.7,0x00c000,-33.3,
1665560941,,18.3,0x00c000,-33.3,0.00e-0
1665560942,C;S;V;F,18.3,0x00c000,-33.4,0.00e-0
1665560943,C;S;V;F,,0x00c000,-33.2,0.00e-0
1665560944,C;S;V;F,18.3,0x00c000,-34.1,0.00e-0
1665560945,C;S;V;F,17.6,0x00c000,,0.00e-0
1665560946,C;S;V;F,17.1,0x00c000,-34.8,0.00e-0
1665560947,C;S;V;F,16.8,0x00c000,-35.2,0.00e-0
1665560948,C;S;V;F,16.4,0x00c000,-35.7,0.00e-0
1665560949,C;S;V;F,15.0,0x00c000,-37.9,0.00e-0
1665560950,C;S;V;F,13.1,0x00c000,-39.6,0.00e-0
1665560952,C;S;V;F,12.1,0x00c000,-41.0,8.47e-6
1665560953,C;S;V;F,12.0,0x00c000,-40.5,
1665560954,,11.9,0x00c000,-40.8,5.44e-6
1665560955,C;S;V;F,11.4,0x00c000,-41.0,3.93e-6
1665560956,C;S;V;F,,0x00c000,-39.8,1.03e-5
1665560957,C;S;V;F,12.4,0x00c000,,7.86e-6
1665560958,C;S;V;F,13.3,0x00c000,-39.2,3.03e-7
1665560959,C;S;V;F,13.2,0x00c000,-39.5,0.00e-0
1665560960,C;S;V;F,12.7,0x00c000,-40.5,1.51e-6
1665560961,C;S;V;F,11.8,0x00c000,-40.7,5.59e-6
1665560962,C;S;V;F,13.6,0x00c000,-39.8,4.99e-6
1665560963,C;S;V;F,15.3,0x00c000,-37.2,3.03e-7
1665560964,C;S;V;F,15.3,0x00c000,-35.7,0.00e-0
1665560965,C;S;V;F,17.3,0x00c000,-34.9,
1665560966,,17.3,0x00c000,-34.7,0.00e-0
1665560967,C;S;V;F,17.7,0x00c000,-34.2,0.00e-0
1665560968,C;S;V;F,,0x00c000,-34.3,0.00e-0
1665560969,C;S;V;F,17.7,0x00c000,-34.5,0.00e-0
1665560970,C;S;V;F,17.3,0x00c000,,0.00e-0
1665560971,C;S;V;F,16.9,0x00c000,-35.5,0.00e-0
1665560972,C;S;V;F,16.4,0x00c000,-36.2,0.00e-0
1665560973,C;S;V;F,16.1,0x00c000,-36.3,0.00e-0
1665560974,C;S;V;F,16.7,0x00c000,-35.6,0.00e-0
1665560975,C;S;V;F,17.5,0x00c000,-34.3,0.00e-0
1665560976,C;S;V;F,18.1,0x00c000,-33.1,0.00e-0
1665560977,C;S;V;F,18.3,0x00c000,-32.8,0.00e-0
1665560978,C;S;V;F,18.4,0x00c000,-32.9,
1665560979,,17.7,0x00c000,-34.1,0.00e-0
1665560980,C;S;V;F,16.9,0x00c000,-35.0,0.00e-0
1665560981,C;S;V;F,16.0,0x00c000,-36.7,0.00e-0
1665560982,C;S;V;F,,0x00c000,-37.5,0.00e-0
1665560983,C;S;V;F,15.3,0x00c000,,0.00e-0
1665560984,C;S;V;F,15.1,0x00c000,-37.6,0.00e-0
1665560985,C;S;V;F,16.3,0x00c000,-36.5,0.00e-0
1665560986,C;S;V;F,16.7,0x00c000,-35.6,0.00e-0
1665560987,C;S;V;F,17.3,0x00c000,-34.8,0.00e-0
1665560988,C;S;V;F,17.6,0x00c000,-34.6,0.00e-0
1665560989,C;S;V;F,17.1,0x00c000,-34.8,0.00e-0
1665560990,C;S;V;F,17.3,0x00c000,-35.2,0.00e-0
1665560991,C;S;V;F,16.3,0x00c000,-36.3,
1665560992,,15.7,0x00c000,-36.9,0.00e-0
1665560993,C;S;V;F,14.8,0x00c000,-38.4,0.00e-0
1665560994,C;S;V;F,,0x00c000,-39.6,0.00e-0
1665560995,C;S;V;F,13.8,0x00c000,-40.3,0.00e-0
1665560996,C;S;V;F,12.7,0x00c000,,6.06e-7
1665560997,C;S;V;F,12.5,0x00c000,-39.8,9.09e-7
1665560998,C;S;V;F,13.9,0x00c000,-38.8,1.51e-7
1665560999,C;S;V;F,14.5,0x00c000,-38.1,0.00e-0
1665561000,C;S;V;F,15.1,0x00c000,-37.4,0.00e-0
1665561001,C;S;V;F,15.7,0x00c000,-36.6,0.00e-0
1665561002,C;S;V;F,16.0,0x00c000,-36.3,0.00e-0
1665561003,C;S;V;F,16.4,0x00c000,-36.1,
1665561004,,16.3,0x00c000,-36.0,0.00e-0
1665561005,C;S;V;F,16.3,0x00c000,-36.3,0.00e-0
1665561006,C;S;V;F,16.0,0x00c000,-36.3,0.00e-0
1665561007,C;S;V;F,,0x00c000,-36.8,0.00e-0
1665561008,C;S;V;F,15.7,0x00c000,-37.9,0.00e-0
1665561009,C;S;V;F,15.2,0x00c000,,0.00e-0
1665561010,C;S;V;F,13.8,0x00c000,-39.2,0.00e-0
1665561011,C;S;V;F,13.0,0x00c000,-40.2,1.51e-7
1665561012,C;S;V;F,12.1,0x00c000,-41.2,7.41e-6
1665561014,C;S;V;F,10.5,0x00c000,-42.0,4.88e-5
1665561015,C;S;V;F,10.7,0x00c000,-41.9,5.49e-5
1665561016,C;S;V;F,11.3,0x00c000,-40.6,3.21e-5
1665561017,C;S;V;F,12.6,0x00c000,-39.4,7.10e-6
1665561018,C;S;V;F,13.6,0x00c000,-38.8,1.51e-7
1665561019,C;S;V;F,14.5,0x00c000,-38.0,0.00e-0
1665561020,C;S;V;F,15.0,0x00c000,-37.9,
1665561021,,14.7,0x00c000,-37.7,0.00e-0
1665561022,C;S;V;F,14.9,0x00c000,-37.9,0.00e-0
1665561023,C;S;V;F,,0x00c000,-38.0,0.00e-0
1665561024,C;S;V;F,14.6,0x00c000,-38.0,0.00e-0
1665561025,C;S;V;F,14.6,0x00c000,,0.00e-0
1665561026,C;S;V;F,14.6,0x00c000,-38.0,0.00e-0
1665561027,C;S;V;F,14.5,0x00c000,-37.9,0.00e-0
1665561028,C;S;V;F,14.6,0x00c000,-38.0,0.00e-0
1665561029,C;S;V;F,14.7,0x00c000,-38.0,0.00e-0
1665561030,C;S;V;F,14.5,0x00c000,-38.0,0.00e-0
1665561031,C;S;V;F,14.7,0x00c000,-37.8,0.00e-0
1665561032,C;S;V;F,14.8,0x00c000,-37.9,0.00e-0
1665561033,C;S;V;F,15.0,0x00c000,-37.6,
1665561034,,14.8,0x00c000,-37.8,0.00e-0
1665561035,C;S;V;F,14.8,0x00c000,-37.7,0.00e-0
1665561036,C;S;V;F,15.1,0x00c000,-37.6,0.00e-0
1665561037,C;S;V;F,,0x00c000,-37.3,0.00e-0
1665561038,C;S;V;F,15.1,0x00c000,-37.3,0.00e-0
1665561039,C;S;V;F,15.2,0x00c000,,0.00e-0